SCP
0 0 0 0 0 0 0 0 0 0 0 0 0 0 0 0 0 0 0 0 0 0 0 0 0 0 0 0 0 0 0 0 0 0 0 0 0 0 0 0 0 0 0
0 0 0 0 0 0 0 0 0 0 0 0 0 0 0 0 0 0 0 0 0 0 0 0 0 0 0 0 0 0 0 0 0 0 0 0 0 0 0 0 0 0 0
0 0 0 0 0 0 0 0 0 0 0 0 0 0 0 0 0 0 0 0 0 0 0 0 0 0 0 0 0 0 0 0 0 0 0 0 0 0 0 0 0 -0 0
0 0 0 0 0 0 0 0 0 0 0 0 0 0 0 0 0 0 0 0 0 0 0 0 0 0 0 0 0 0 0 0 0 0 0 0 0 0 0 0 0 0 0
0 0 0 0 0 0 0 0 0 0 0 0 0 0 0 0 0 0 0 0 0 0 0 0 0 0 0 0 0 0 0 0 0 0 0 0 0 0 0 0 0 0 0
0 0 0 0 0 0 0 0 0 0 0 0 0 0 0 0 0 0 0 0 0 0 0 0 0 0 0 0 0 0 0 -0 -0 -0 0 0 0 0 0 0 0 0 0
0 0 0 0 0 0 0 0 0 0 0 0 0 0 0 0 0 0 0 0 0 0 0 0 0 0 0 0 0 0 -0 0 0 -0 0 0 0 0 0 0 0 0 0
0 0 0 0 0 0 0 0 0 0 0 0 0 0 0 0 0 0 0 0 0 0 0 0 0 0 0 0 0 -0 -0 -0 -0 0 -0 -0 0 0 0 0 0 0 0
0 0 0 0 0 0 0 0 0 0 0 0 0 0 0 0 0 0 0 0 0 0 0 0 0 0 0 0 -0 -0 -0 -0 -0 -0 0 0 0 -0 -0 0 0 0 0
-0 -0 0 0 0 0 0 0 0 0 0 0 0 0 0 0 0 0 0 0 0 0 0 0 0 0 0 0 0 0 0 0 0 0 0 -0 -0 -0 -0 -0 0 0 0
-0 -0 -0 0 0 0 0 0 0 0 0 0 0 0 0 0 0 0 0 0 0 0 0 0 0 0 0 0 0 0 0 0 0 0 0 -0 -0 -0 -0 -0 -0 -0 0
0 0 -0 0 0 0 0 0 0 0 0 0 0 0 0 0 0 0 0 0 0 -0 -0 -0 0 0 0 0 0 0 -0 0 0 0 0 -0 -0 -0 -0 -0 -0 -0 0
0 0 0 0 0 0 0 0 0 0 0 0 0 0 0 0 0 0 0 0 0 0 -0 -0 -0 0 -0 -0 -0 -0 -0 0 0 0 0 -0 -0 -0 -0 -0 -0 -0 -0
0 0 0 0 0 0 0 0 0 0 0 0 0 0 0 0 0 0 0 0 0 0 -0 -0 -0 -0 -0 -0 0 -0 0 0 0 -0 -0 -0 -0 -0 -0 -0 -0 -0 -0
0 0 0 0 0 0 0 0 0 0 0 0 0 0 0 0 -0 0 0 0 -0 -0 0 0 0 -0 -0 0 -0 0 0 0 0 -0 -0 -0 -0 -0 -0 -0 -0 -0 -0
0 0 0 0 0 0 0 0 0 0 0 0 0 0 0 0 -0 0 0 -0 0 0 0 0 0 -0 -0 -0 -0 0 0 -0 -0 -0 -0 -0 -0 -0 -0 -0 0 0 0
0 0 0 0 0 0 0 0 0 0 0 0 0 0 0 0 -0 -0 0 -0 0 0 0 0 0 -0 -0 0 0 0 0 -0 -0 -0 -0 -0 -0 0 0 0 -0 0 0
0 -0 0 0 0 0 0 0 0 0 0 0 0 0 0 -0 -0 -0 -0 0 0 0 0 0 0 0 0 0 0 0 -0 0 0 0 0 0 0 0 0 0 0 0 0
0 0 0 0 0 0 0 0 0 0 0 0 0 0 0 0 -0 -0 -0 -0 0 0 0 0 -0 0 0 0 0 0 0 0 0 0 0 0 0 0 0 0 0 -0 -0
0 0 0 0 0 0 0 0 0 0 0 0 0 0 0 0 0 -0 -0 -0 -0 -0 -0 0 0 0 0 0 0 0 0 0 -0 -0 -0 -0 0 -0 -0 -0 -0 -0 -0
0 0 0 0 0 0 0 0 0 0 0 0 0 0 0 0 0 0 -0 -0 -0 -0 -0 -0 0 0 0 0 0 0 0 -0 -0 0 -0 -0 -0 -0 -0 -0 -0 -0 -0
0 0 0 0 0 0 0 0 0 0 0 0 0 0 0 0 0 0 0 -0 -0 -0 0 0 0 0 0 0 -0 0 0 0 0 -0 -0 -0 -0 -0 -0 -0 -0 -0 -0
0 0 0 0 0 0 0 0 0 0 0 0 0 0 0 0 0 0 0 0 0 0 0 0 0 0 0 0 0 0 0 0 0 -0 -0 -0 -0 -0 -0 -0 -0 -0 -0
0 0 0 0 0 0 0 0 0 0 0 0 0 0 0 0 0 0 0 0 0 0 0 0 0 0 0 0 0 0 0 0 -0 -0 -0 -0 -0 -0 -0 -0 0 0 0
0 0 0 0 0 0 0 0 0 0 0 0 0 0 0 0 0 0 0 0 0 0 0 0 0 0 0 0 0 0 0 -0 -0 -0 -0 -0 -0 -0 -0 0 0 0 0
0 0 0 0 0 0 0 0 0 0 0 0 0 0 0 0 0 0 0 0 0 0 0 0 0 0 0 0 0 -0 -0 -0 -0 -0 -0 -0 -0 -0 0 0 0 0 0
Wind_Speed_500mb
21 25 28 30 35 40 46 52 56 58 55 52 47 44 44 46 44 44 47 51 55 59 63 65 66 63 65 64 63 62 61 66 76 85 61 57 68 78 87 56 48 63 63
20 23 25 30 36 42 48 53 57 59 49 45 43 45 46 46 46 47 50 49 56 60 56 60 61 60 62 61 62 62 72 73 75 76 68 54 50 63 78 85 90 75 60
19 21 23 29 37 44 50 54 56 55 49 43 40 42 44 44 47 45 44 49 49 51 53 57 62 59 60 61 61 63 63 61 67 63 70 60 71 69 58 58 61 84 78
16 19 23 29 36 43 49 52 53 51 51 48 45 45 42 43 44 45 47 49 55 58 57 55 54 54 56 53 53 59 57 58 47 56 60 50 43 35 36 38 47 48 55
16 21 25 29 34 41 47 51 52 51 53 54 52 47 45 44 45 45 47 52 60 60 58 54 55 50 46 46 51 50 45 42 46 47 47 51 53 47 46 50 43 44 48
20 23 27 30 34 41 46 51 54 54 58 59 52 47 42 41 40 40 43 52 54 55 57 50 49 43 38 38 39 44 53 55 59 57 45 41 41 46 54 47 43 37 32
23 26 29 33 36 41 45 50 54 57 60 59 48 42 37 35 35 39 45 44 47 48 44 40 40 35 34 33 30 37 40 36 42 50 51 48 45 38 38 42 43 39 42
23 28 30 34 37 40 45 49 53 56 59 58 46 38 34 32 38 44 38 43 42 38 33 31 34 31 21 26 30 28 28 29 33 38 46 46 45 39 29 27 34 35 29
23 29 33 35 38 41 43 47 51 55 57 56 48 38 35 33 39 38 42 40 38 34 28 28 22 23 26 24 26 21 19 25 31 35 40 46 44 33 25 22 27 35 36
23 32 36 36 38 42 44 46 49 51 53 55 49 37 35 35 35 36 41 35 31 23 23 24 24 25 26 25 19 18 20 20 26 27 20 10 11 13 11 17 22 38 35
25 33 38 38 39 42 43 45 46 48 50 50 49 35 32 33 31 33 37 37 32 23 25 24 13 10 7 11 18 15 15 22 19 11 14 2 10 15 23 23 31 41 36
23 27 34 38 39 41 42 42 43 45 47 48 47 43 34 30 29 29 32 37 34 25 17 19 17 12 5 10 16 19 16 12 9 18 21 22 21 22 19 18 25 30 28
29 28 31 40 40 43 43 42 41 42 44 46 45 45 42 35 30 26 27 30 32 29 20 13 11 9 5 5 3 5 1 8 22 26 25 24 19 16 14 14 14 14 16
36 35 36 41 46 46 47 44 42 40 41 43 43 42 41 39 35 30 23 22 21 24 22 16 9 3 1 2 4 8 13 17 20 23 22 21 18 18 17 19 20 26 32
50 48 48 48 50 53 50 46 42 38 38 38 40 39 40 39 38 34 32 21 13 14 17 17 9 6 8 12 15 16 16 17 19 21 24 27 27 27 30 29 30 37 51
54 54 53 51 50 52 50 48 44 38 36 35 35 36 33 34 34 31 28 20 12 7 8 8 6 4 11 14 14 17 17 18 22 26 31 37 41 39 39 42 48 52 58
48 48 52 52 52 53 51 46 46 37 39 34 30 32 29 28 28 26 26 20 11 7 3 6 5 6 8 11 14 18 23 28 33 37 44 45 44 45 45 44 45 48 54
46 46 49 48 48 52 51 46 45 40 41 34 28 28 25 22 22 22 20 17 10 1 5 7 8 11 14 18 23 28 37 43 44 43 42 39 38 38 39 43 43 44 47
49 53 49 51 50 51 50 48 46 44 44 37 29 25 22 15 13 14 17 15 14 12 11 12 16 20 24 30 38 45 45 43 38 33 34 36 37 35 40 40 37 35 32
53 54 51 55 56 56 57 55 48 49 45 43 34 25 23 14 6 3 9 15 19 21 25 27 32 36 38 41 44 42 37 34 33 33 35 34 34 31 30 30 28 26 25
60 62 65 68 70 65 63 60 55 52 48 46 37 30 26 21 14 10 8 14 18 21 26 28 31 33 33 31 29 29 29 32 33 32 33 32 30 25 24 23 21 20 21
62 67 68 68 73 75 70 66 60 57 51 48 43 37 34 29 24 20 17 17 17 18 21 22 22 23 23 22 23 25 27 29 30 29 28 26 24 20 19 18 20 22 22
62 64 64 63 67 72 74 71 64 61 57 51 47 47 40 36 32 28 25 23 23 22 22 24 24 25 28 28 28 24 22 25 26 24 22 22 21 19 20 20 22 24 25
58 60 63 66 66 63 69 73 69 63 61 53 51 54 47 43 39 35 33 31 29 28 27 26 28 27 29 33 34 34 30 27 26 24 19 16 16 20 21 22 23 24 27
60 64 65 64 65 63 68 71 69 64 62 57 54 57 54 50 46 44 41 38 35 33 32 32 33 34 34 35 33 31 29 26 24 22 21 18 17 19 21 22 23 27 28
56 59 67 71 70 67 72 76 71 65 61 61 58 58 61 57 52 50 48 46 43 41 39 39 39 40 39 37 35 32 28 26 23 23 20 17 15 18 22 23 26 27 28
Wind_Direction_500mb
336 331 328 329 333 334 335 335 333 331 324 320 316 316 316 311 307 300 297 296 295 295 294 292 290 287 282 279 279 273 268 265 269 274 270 268 260 258 259 258 263 256 256
329 326 328 331 337 339 340 340 339 339 340 338 331 319 313 309 307 300 298 300 300 297 294 291 288 284 278 276 273 266 262 261 268 273 274 266 277 263 259 266 263 261 266
325 327 326 332 340 341 343 341 340 338 334 329 319 315 311 310 306 304 307 305 304 303 300 299 288 282 275 273 272 270 265 266 268 272 274 276 270 269 273 271 268 256 263
328 332 334 338 341 342 343 343 341 340 335 327 317 308 305 306 306 306 305 301 300 297 293 297 297 283 274 274 271 266 265 265 267 264 273 282 266 265 261 278 268 252 250
342 342 339 338 340 343 345 347 348 345 339 330 319 306 299 301 304 306 302 301 304 303 301 289 304 283 274 270 269 266 268 270 267 278 275 273 274 270 267 273 277 272 257
347 346 340 338 339 344 349 352 351 349 345 338 329 318 309 307 310 307 307 305 305 304 304 293 301 285 278 274 266 262 255 264 263 269 269 279 280 269 268 275 276 266 247
343 343 339 337 340 344 349 352 351 351 349 345 340 335 328 322 322 317 315 309 306 303 301 297 295 286 277 274 279 274 259 257 264 262 266 271 286 277 281 273 266 249 239
354 351 340 338 343 343 346 348 349 350 350 347 342 337 337 340 327 324 328 315 303 304 301 295 296 293 280 282 293 271 257 264 266 258 258 274 276 275 278 272 243 234 223
349 351 349 341 342 341 343 345 346 346 348 349 344 339 339 338 329 339 331 322 313 297 300 302 299 291 293 291 280 260 257 266 274 270 267 265 267 267 253 256 245 221 189
343 344 343 341 338 338 340 339 343 344 345 349 348 341 336 334 334 339 344 341 338 334 316 301 292 294 285 272 247 229 272 272 285 288 286 248 261 260 206 185 211 190 187
326 329 331 332 335 335 336 335 335 340 342 349 352 349 336 333 338 342 353 0 359 355 358 2 350 282 267 251 235 246 266 283 286 252 181 235 137 153 170 183 194 190 188
306 318 324 325 331 332 332 329 327 334 338 344 352 357 345 335 338 347 353 359 2 358 14 8 21 354 256 262 260 264 267 260 223 171 149 133 133 129 134 154 177 193 201
285 294 308 315 323 327 325 323 320 325 334 338 348 351 352 344 332 339 345 352 4 1 10 355 350 330 329 252 247 47 142 173 166 157 144 134 134 131 139 161 184 196 201
279 287 297 303 310 316 317 316 312 315 326 332 340 345 347 347 337 329 337 345 0 359 1 355 350 336 324 319 107 105 137 158 173 168 148 140 135 125 130 128 134 138 144
273 281 288 293 297 302 307 309 307 306 313 325 332 340 341 345 341 334 334 338 353 359 3 357 17 89 147 153 144 142 150 158 165 147 135 125 119 117 115 119 127 138 130
274 281 285 287 287 289 296 303 301 299 299 312 323 331 337 339 338 337 331 319 331 345 1 349 2 121 141 141 143 137 135 138 133 130 126 122 119 117 114 119 122 119 119
277 279 281 283 282 286 291 294 296 291 289 298 311 319 330 339 340 343 342 329 298 284 258 253 225 191 171 159 146 138 134 130 127 127 123 120 117 118 126 126 123 123 120
277 282 284 286 287 289 290 293 290 285 281 283 296 305 319 329 342 352 356 350 6 321 199 219 191 182 167 153 142 137 131 127 126 124 123 125 128 131 132 127 124 123 123
273 274 278 280 282 284 284 288 286 283 279 274 276 285 296 310 338 356 30 32 50 81 115 140 141 144 143 138 135 133 131 130 129 129 129 129 129 129 127 124 124 125 128
269 272 275 277 280 278 278 282 284 281 277 271 263 265 273 276 275 336 75 74 78 92 105 116 123 127 130 134 135 135 136 136 134 133 130 130 128 129 125 124 124 125 128
274 273 273 271 272 272 275 276 278 278 273 268 256 251 253 253 233 219 173 129 118 114 114 118 124 128 133 138 142 142 142 138 138 140 136 132 128 131 127 126 126 124 122
275 274 273 271 265 258 262 270 273 273 269 264 252 242 241 241 234 219 205 178 162 154 146 141 142 142 144 147 147 146 146 144 142 140 137 134 132 132 128 131 132 128 124
269 267 266 265 263 257 253 257 262 266 264 259 251 238 234 234 230 218 213 199 181 174 172 164 160 160 154 151 146 141 141 141 140 139 141 140 139 141 138 135 130 131 132
264 258 256 258 260 260 253 252 255 257 258 254 249 237 231 227 227 220 211 208 195 184 182 182 169 168 165 159 153 150 151 151 146 144 146 144 143 142 139 136 131 135 140
261 257 252 257 261 261 256 253 253 251 251 249 246 237 227 223 222 219 210 208 201 194 191 188 181 175 174 169 161 157 156 160 158 155 151 150 149 140 135 134 136 141 140
264 259 256 257 258 254 254 255 254 250 247 246 242 237 227 223 219 220 212 206 203 198 193 190 185 179 178 173 169 166 165 164 163 160 157 150 145 143 143 145 145 142 137
Wind_Speed_850mb
21 25 28 30 35 40 46 52 56 58 55 52 47 44 44 46 44 44 47 51 55 59 63 65 66 63 65 64 63 62 61 66 76 85 61 57 68 78 87 56 48 63 63
20 23 25 30 36 42 48 53 57 59 49 45 43 45 46 46 46 47 50 49 56 60 56 60 61 60 62 61 62 62 72 73 75 76 68 54 50 63 78 85 90 75 60
19 21 23 29 37 44 50 54 56 55 49 43 40 42 44 44 47 45 44 49 49 51 53 57 62 59 60 61 61 63 63 61 67 63 70 60 71 69 58 58 61 84 78
16 19 23 29 36 43 49 52 53 51 51 48 45 45 42 43 44 45 47 49 55 58 57 55 54 54 56 53 53 59 57 58 47 56 60 50 43 35 36 38 47 48 55
16 21 25 29 34 41 47 51 52 51 53 54 52 47 45 44 45 45 47 52 60 60 58 54 55 50 46 46 51 50 45 42 46 47 47 51 53 47 46 50 43 44 48
20 23 27 30 34 41 46 51 54 54 58 59 52 47 42 41 40 40 43 52 54 55 57 50 49 43 38 38 39 44 53 55 59 57 45 41 41 46 54 47 43 37 32
23 26 29 33 36 41 45 50 54 57 60 59 48 42 37 35 35 39 45 44 47 48 44 40 40 35 34 33 30 37 40 36 42 50 51 48 45 38 38 42 43 39 42
23 28 30 34 37 40 45 49 53 56 59 58 46 38 34 32 38 44 38 43 42 38 33 31 34 31 21 26 30 28 28 29 33 38 46 46 45 39 29 27 34 35 29
23 29 33 35 38 41 43 47 51 55 57 56 48 38 35 33 39 38 42 40 38 34 28 28 22 23 26 24 26 21 19 25 31 35 40 46 44 33 25 22 27 35 36
23 32 36 36 38 42 44 46 49 51 53 55 49 37 35 35 35 36 41 35 31 23 23 24 24 25 26 25 19 18 20 20 26 27 20 10 11 13 11 17 22 38 35
25 33 38 38 39 42 43 45 46 48 50 50 49 35 32 33 31 33 37 37 32 23 25 24 13 10 7 11 18 15 15 22 19 11 14 2 10 15 23 23 31 41 36
23 27 34 38 39 41 42 42 43 45 47 48 47 43 34 30 29 29 32 37 34 25 17 19 17 12 5 10 16 19 16 12 9 18 21 22 21 22 19 18 25 30 28
29 28 31 40 40 43 43 42 41 42 44 46 45 45 42 35 30 26 27 30 32 29 20 13 11 9 5 5 3 5 1 8 22 26 25 24 19 16 14 14 14 14 16
36 35 36 41 46 46 47 44 42 40 41 43 43 42 41 39 35 30 23 22 21 24 22 16 9 3 1 2 4 8 13 17 20 23 22 21 18 18 17 19 20 26 32
50 48 48 48 50 53 50 46 42 38 38 38 40 39 40 39 38 34 32 21 13 14 17 17 9 6 8 12 15 16 16 17 19 21 24 27 27 27 30 29 30 37 51
54 54 53 51 50 52 50 48 44 38 36 35 35 36 33 34 34 31 28 20 12 7 8 8 6 4 11 14 14 17 17 18 22 26 31 37 41 39 39 42 48 52 58
48 48 52 52 52 53 51 46 46 37 39 34 30 32 29 28 28 26 26 20 11 7 3 6 5 6 8 11 14 18 23 28 33 37 44 45 44 45 45 44 45 48 54
46 46 49 48 48 52 51 46 45 40 41 34 28 28 25 22 22 22 20 17 10 1 5 7 8 11 14 18 23 28 37 43 44 43 42 39 38 38 39 43 43 44 47
49 53 49 51 50 51 50 48 46 44 44 37 29 25 22 15 13 14 17 15 14 12 11 12 16 20 24 30 38 45 45 43 38 33 34 36 37 35 40 40 37 35 32
53 54 51 55 56 56 57 55 48 49 45 43 34 25 23 14 6 3 9 15 19 21 25 27 32 36 38 41 44 42 37 34 33 33 35 34 34 31 30 30 28 26 25
60 62 65 68 70 65 63 60 55 52 48 46 37 30 26 21 14 10 8 14 18 21 26 28 31 33 33 31 29 29 29 32 33 32 33 32 30 25 24 23 21 20 21
62 67 68 68 73 75 70 66 60 57 51 48 43 37 34 29 24 20 17 17 17 18 21 22 22 23 23 22 23 25 27 29 30 29 28 26 24 20 19 18 20 22 22
62 64 64 63 67 72 74 71 64 61 57 51 47 47 40 36 32 28 25 23 23 22 22 24 24 25 28 28 28 24 22 25 26 24 22 22 21 19 20 20 22 24 25
58 60 63 66 66 63 69 73 69 63 61 53 51 54 47 43 39 35 33 31 29 28 27 26 28 27 29 33 34 34 30 27 26 24 19 16 16 20 21 22 23 24 27
60 64 65 64 65 63 68 71 69 64 62 57 54 57 54 50 46 44 41 38 35 33 32 32 33 34 34 35 33 31 29 26 24 22 21 18 17 19 21 22 23 27 28
56 59 67 71 70 67 72 76 71 65 61 61 58 58 61 57 52 50 48 46 43 41 39 39 39 40 39 37 35 32 28 26 23 23 20 17 15 18 22 23 26 27 28
Wind_Direction_850mb
336 331 328 329 333 334 335 335 333 331 324 320 316 316 316 311 307 300 297 296 295 295 294 292 290 287 282 279 279 273 268 265 269 274 270 268 260 258 259 258 263 256 256
329 326 328 331 337 339 340 340 339 339 340 338 331 319 313 309 307 300 298 300 300 297 294 291 288 284 278 276 273 266 262 261 268 273 274 266 277 263 259 266 263 261 266
325 327 326 332 340 341 343 341 340 338 334 329 319 315 311 310 306 304 307 305 304 303 300 299 288 282 275 273 272 270 265 266 268 272 274 276 270 269 273 271 268 256 263
328 332 334 338 341 342 343 343 341 340 335 327 317 308 305 306 306 306 305 301 300 297 293 297 297 283 274 274 271 266 265 265 267 264 273 282 266 265 261 278 268 252 250
342 342 339 338 340 343 345 347 348 345 339 330 319 306 299 301 304 306 302 301 304 303 301 289 304 283 274 270 269 266 268 270 267 278 275 273 274 270 267 273 277 272 257
347 346 340 338 339 344 349 352 351 349 345 338 329 318 309 307 310 307 307 305 305 304 304 293 301 285 278 274 266 262 255 264 263 269 269 279 280 269 268 275 276 266 247
343 343 339 337 340 344 349 352 351 351 349 345 340 335 328 322 322 317 315 309 306 303 301 297 295 286 277 274 279 274 259 257 264 262 266 271 286 277 281 273 266 249 239
354 351 340 338 343 343 346 348 349 350 350 347 342 337 337 340 327 324 328 315 303 304 301 295 296 293 280 282 293 271 257 264 266 258 258 274 276 275 278 272 243 234 223
349 351 349 341 342 341 343 345 346 346 348 349 344 339 339 338 329 339 331 322 313 297 300 302 299 291 293 291 280 260 257 266 274 270 267 265 267 267 253 256 245 221 189
343 344 343 341 338 338 340 339 343 344 345 349 348 341 336 334 334 339 344 341 338 334 316 301 292 294 285 272 247 229 272 272 285 288 286 248 261 260 206 185 211 190 187
326 329 331 332 335 335 336 335 335 340 342 349 352 349 336 333 338 342 353 0 359 355 358 2 350 282 267 251 235 246 266 283 286 252 181 235 137 153 170 183 194 190 188
306 318 324 325 331 332 332 329 327 334 338 344 352 357 345 335 338 347 353 359 2 358 14 8 21 354 256 262 260 264 267 260 223 171 149 133 133 129 134 154 177 193 201
285 294 308 315 323 327 325 323 320 325 334 338 348 351 352 344 332 339 345 352 4 1 10 355 350 330 329 252 247 47 142 173 166 157 144 134 134 131 139 161 184 196 201
279 287 297 303 310 316 317 316 312 315 326 332 340 345 347 347 337 329 337 345 0 359 1 355 350 336 324 319 107 105 137 158 173 168 148 140 135 125 130 128 134 138 144
273 281 288 293 297 302 307 309 307 306 313 325 332 340 341 345 341 334 334 338 353 359 3 357 17 89 147 153 144 142 150 158 165 147 135 125 119 117 115 119 127 138 130
274 281 285 287 287 289 296 303 301 299 299 312 323 331 337 339 338 337 331 319 331 345 1 349 2 121 141 141 143 137 135 138 133 130 126 122 119 117 114 119 122 119 119
277 279 281 283 282 286 291 294 296 291 289 298 311 319 330 339 340 343 342 329 298 284 258 253 225 191 171 159 146 138 134 130 127 127 123 120 117 118 126 126 123 123 120
277 282 284 286 287 289 290 293 290 285 281 283 296 305 319 329 342 352 356 350 6 321 199 219 191 182 167 153 142 137 131 127 126 124 123 125 128 131 132 127 124 123 123
273 274 278 280 282 284 284 288 286 283 279 274 276 285 296 310 338 356 30 32 50 81 115 140 141 144 143 138 135 133 131 130 129 129 129 129 129 129 127 124 124 125 128
269 272 275 277 280 278 278 282 284 281 277 271 263 265 273 276 275 336 75 74 78 92 105 116 123 127 130 134 135 135 136 136 134 133 130 130 128 129 125 124 124 125 128
274 273 273 271 272 272 275 276 278 278 273 268 256 251 253 253 233 219 173 129 118 114 114 118 124 128 133 138 142 142 142 138 138 140 136 132 128 131 127 126 126 124 122
275 274 273 271 265 258 262 270 273 273 269 264 252 242 241 241 234 219 205 178 162 154 146 141 142 142 144 147 147 146 146 144 142 140 137 134 132 132 128 131 132 128 124
269 267 266 265 263 257 253 257 262 266 264 259 251 238 234 234 230 218 213 199 181 174 172 164 160 160 154 151 146 141 141 141 140 139 141 140 139 141 138 135 130 131 132
264 258 256 258 260 260 253 252 255 257 258 254 249 237 231 227 227 220 211 208 195 184 182 182 169 168 165 159 153 150 151 151 146 144 146 144 143 142 139 136 131 135 140
261 257 252 257 261 261 256 253 253 251 251 249 246 237 227 223 222 219 210 208 201 194 191 188 181 175 174 169 161 157 156 160 158 155 151 150 149 140 135 134 136 141 140
264 259 256 257 258 254 254 255 254 250 247 246 242 237 227 223 219 220 212 206 203 198 193 190 185 179 178 173 169 166 165 164 163 160 157 150 145 143 143 145 145 142 137